星链-35773(STARLINK-35773)

导读 | 豆包AI

STARLINK-35773是美国SpaceX公司星链星座的一员,于2025年12月11日发射,作为低地球轨道宽带互联网卫星,运行在近地轨道,平均高度约550公里左右,倾角约97.6度,轨道周期约95.6分钟。它旨在为全球提供高速卫星互联网接入服务,尤其服务偏远地区和网络基础设施薄弱区域,目前处于运行状态,是星链大规模星座组网进程中的最新发射卫星之一,助力SpaceX完成全球卫星互联网覆盖目标。

基本信息
目录编号:
67042
目录名称:
STARLINK-35773
国际标识:
2025-294N
轨道中心:
EARTH
卫星名称:
星链-35773
卫星全名:
星链-35773(STARLINK-35773)
卫星状态:
在轨 (已飞行93 天)
发射日期:
2025-12-11 UTC
国别 :
美国 (US)
星等 :
--
轨道信息
数据来源 国际轨道数据
星历时间: 2026-03-13T14:01:37+0800
1天前
查看轨道信息
半长轴: 6861.21km
偏心率: 0.0001968
轨道倾角: 43.004°
近地点辐角 248.095°
升交点赤经 17.983°
平近点角 111.969°
近地点: 481.722km
远地点: 484.424km
周期: 94.267分钟
每日圈数: 15.275722
详细信息
固有亮度:
5
最大亮度:
2.5
卫星平台:
Starlink V1.0
覆盖范围:
全球
运营商:
太空探索技术公司
运营商所在国:
美国
制造商(研发单位):
太空探索技术公司
制造商所在国:
美国
使用方式:
暂无
卫星简介
Starlink 计划是 SpaceX 推出的全球卫星互联网项目,通过发射低轨道卫星,为全球尤其是偏远地区提供高速、低延迟的互联网服务。自 2019 年起,Starlink 已部署数千颗卫星,旨在缩小全球数字鸿沟,推动互联网普及。该项目还为军事、航空等行业提供通信支持,带来广泛经济效益。
2D轨道图
3D轨道图
轨道高度分析图
轨道倾角分析图
轨道综合分析图
查看轨道综合分析图